Weather History for Cagliari, Italy

Change the Weather History Date:

Thursday, October 10, 2013

  Actual Average Record
Temperature  
Mean Temperature 66 °F -  
Max Temperature 77 °F 70 °F 86 °F (2001)
Min Temperature 55 °F 54 °F 48 °F (2011)
Cooling Degree Days 1    
Growing Degree Days 16 (Base 50)    
Moisture  
Dew Point 57 °F    
Average Humidity 76    
Maximum Humidity 100    
Minimum Humidity 44    
Precipitation  
Precipitation 0.00 in 0.07 in - ()
Sea Level Pressure  
Sea Level Pressure 29.96 in    
Wind  
Wind Speed 6 mph ()    
Max Wind Speed 12 mph    
Max Gust Speed -    
Visibility 6.2 miles    
Events      
Averages and records for this station are not official NWS values.
T = Trace of Precipitation, MM = Missing Value Source: Averaged Metar Reports

Daily Weather History Graph

Daily Weather History Graph

Search for Another Location

Airport:

Trip Planner

Search our weather history database for the weather conditions in past years. The results will help you decide how hot, cold, wet, or windy it might be!

Date:

Astronomy

Oct. 10, 2013 Rise Set
Actual Time 7:28 AM CEST 6:52 PM CEST
Civil Twilight 7:01 AM CEST 7:19 PM CEST
Nautical Twilight 6:30 AM CEST 7:50 PM CEST
Astronomical Twilight 5:59 AM CEST 8:21 PM CEST
Moon 1:03 PM CEST (10/10) 11:13 PM CEST (10/10)
Length of Visible Light 12h 17m
Length of Day
11h 23m
Waxing Crescent, 33% of the Moon is Illuminated
Oct 10
Waxing Crescent
Oct 12
First Quarter
Oct 19
Full
Oct 27
Last Quarter
Nov 3
New

Hourly Weather History & Observations

Time (CEST) Temp. Dew Point Humidity Pressure Visibility Wind Dir Wind Speed Gust Speed Precip Events Conditions
12:20 AM 62.6 °F 59.0 °F 88% 30.06 in - NW 4.6 mph - N/A   Clear
12:50 AM 60.8 °F 59.0 °F 94% 30.06 in - NW 5.8 mph - N/A   Clear
1:20 AM 60.8 °F 59.0 °F 94% 30.06 in - NW 5.8 mph - N/A   Clear
1:50 AM 60.8 °F 59.0 °F 94% 30.06 in - NW 5.8 mph - N/A   Clear
2:20 AM 60.8 °F 59.0 °F 94% 30.06 in - NW 5.8 mph - N/A   Clear
2:50 AM 59.0 °F 57.2 °F 94% 30.04 in - NW 5.8 mph - N/A   Clear
3:20 AM 59.0 °F 57.2 °F 94% 30.04 in - NNW 8.1 mph - N/A   Clear
3:50 AM 59.0 °F 57.2 °F 94% 30.04 in - NNW 8.1 mph - N/A   Clear
4:20 AM 57.2 °F 57.2 °F 100% 30.04 in - NW 6.9 mph - N/A   Clear
4:50 AM 57.2 °F 55.4 °F 94% 30.01 in - NNW 8.1 mph - N/A   Clear
5:20 AM 57.2 °F 55.4 °F 94% 30.01 in - NW 5.8 mph - N/A   Clear
5:50 AM 57.2 °F 55.4 °F 94% 30.01 in - NW 6.9 mph - N/A   Clear
6:20 AM 57.2 °F 55.4 °F 94% 30.01 in - NW 5.8 mph - N/A   Clear
6:50 AM 55.4 °F 55.4 °F 100% 30.01 in - NW 9.2 mph - N/A   Clear
7:20 AM 55.4 °F 55.4 °F 100% 30.01 in - NNW 8.1 mph - N/A   Clear
7:50 AM 55.4 °F 55.4 °F 100% 30.01 in - NNW 6.9 mph - N/A   Clear
8:20 AM 57.2 °F 57.2 °F 100% 29.98 in - NW 8.1 mph - N/A   Clear
8:50 AM 59.0 °F 57.2 °F 94% 30.01 in - NW 6.9 mph - N/A   Clear
9:20 AM 60.8 °F 59.0 °F 94% 30.01 in - NW 8.1 mph - N/A   Clear
9:50 AM 64.4 °F 59.0 °F 83% 30.01 in - North 4.6 mph - N/A   Clear
10:20 AM 66.2 °F 59.0 °F 78% 30.01 in - North 4.6 mph - N/A   Clear
10:50 AM 69.8 °F 59.0 °F 68% 30.01 in - NNW 3.5 mph - N/A   Clear
11:20 AM 69.8 °F 59.0 °F 68% 29.98 in - WNW 8.1 mph - N/A   Clear
11:50 AM 71.6 °F 59.0 °F 64% 29.98 in 6.2 mi NW 9.2 mph - N/A   Partly Cloudy
12:20 PM 73.4 °F 59.0 °F 61% 29.98 in 6.2 mi NNW 10.4 mph - N/A   Partly Cloudy
12:50 PM 73.4 °F 59.0 °F 61% 29.98 in 6.2 mi NNW 11.5 mph - N/A   Partly Cloudy
1:20 PM 75.2 °F 57.2 °F 53% 29.98 in 6.2 mi NNW 8.1 mph - N/A   Partly Cloudy
1:50 PM 75.2 °F 57.2 °F 53% 29.95 in 6.2 mi NW 6.9 mph - N/A   Partly Cloudy
2:20 PM 77.0 °F 55.4 °F 47% 29.92 in 6.2 mi NNW 8.1 mph - N/A   Partly Cloudy
2:50 PM 77.0 °F 55.4 °F 47% 29.92 in 6.2 mi North 6.9 mph - N/A   Partly Cloudy
3:20 PM 77.0 °F 53.6 °F 44% 29.92 in 6.2 mi NNW 6.9 mph - N/A   Partly Cloudy
3:50 PM 77.0 °F 53.6 °F 44% 29.89 in 6.2 mi NW 5.8 mph - N/A   Partly Cloudy
4:20 PM 73.4 °F 55.4 °F 53% 29.89 in 6.2 mi Variable 3.5 mph - N/A   Partly Cloudy
4:50 PM 75.2 °F 55.4 °F 50% 29.89 in 6.2 mi SW 4.6 mph - N/A   Partly Cloudy
5:20 PM 75.2 °F 55.4 °F 50% 29.89 in 6.2 mi NNW 11.5 mph - N/A   Partly Cloudy
5:50 PM 75.2 °F 53.6 °F 47% 29.89 in 6.2 mi North 9.2 mph - N/A   Partly Cloudy
6:20 PM 73.4 °F 53.6 °F 50% 29.89 in 6.2 mi North 10.4 mph - N/A   Partly Cloudy
6:50 PM 71.6 °F 55.4 °F 57% 29.89 in 6.2 mi NNW 8.1 mph - N/A   Partly Cloudy
7:20 PM 69.8 °F 55.4 °F 60% 29.89 in - NNW 10.4 mph - N/A   Clear
7:50 PM 68.0 °F 55.4 °F 64% 29.89 in - NNW 8.1 mph - N/A   Clear
8:20 PM 66.2 °F 57.2 °F 73% 29.89 in - NW 6.9 mph - N/A   Clear
8:50 PM 66.2 °F 57.2 °F 73% 29.89 in - NNW 6.9 mph - N/A   Clear
9:20 PM 66.2 °F 57.2 °F 73% 29.89 in - North 8.1 mph - N/A   Clear
9:50 PM 64.4 °F 57.2 °F 77% 29.89 in - North 8.1 mph - N/A   Clear
10:20 PM 64.4 °F 57.2 °F 77% 29.89 in - North 6.9 mph - N/A   Clear
10:50 PM 64.4 °F 57.2 °F 77% 29.89 in - North 6.9 mph - N/A   Clear
11:20 PM 62.6 °F 57.2 °F 82% 29.89 in - NNW 6.9 mph - N/A   Clear
11:50 PM 62.6 °F 57.2 °F 82% 29.89 in - NNW 5.8 mph - N/A   Clear